This is the latest recevied weather packets stored in our database for station/object WB0RXX. If no packets are shown the sender has not sent any weather packets the latest 10 day(s).
| Time | Temp. | Humidity | Pressure | Rain* | Wind** | Luminosity | Snow |
|---|---|---|---|---|---|---|---|
| 1777863604 | 15° C | 41% | 1004 hPa | 0 mm | - | - | - |
| 1777863004 | 15° C | 40% | 1004.2 hPa | 0 mm | - | - | - |
| 1777862404 | 15.56° C | 36% | 1004.3 hPa | 0 mm | - | - | - |
| 1777861804 | 16.11° C | 36% | 1004.3 hPa | 0 mm | - | - | - |
| 1777861203 | 17.22° C | 34% | 1004.4 hPa | 0 mm | - | - | - |
| 1777860604 | 17.78° C | 33% | 1004.5 hPa | 0 mm | - | - | - |
| 1777860004 | 18.33° C | 31% | 1004.5 hPa | 0 mm | - | - | - |
| 1777859403 | 18.89° C | 30% | 1004.6 hPa | 0 mm | - | - | - |
| 1777858803 | 18.89° C | 29% | 1004.8 hPa | 0 mm | - | - | - |
| 1777858203 | 19.44° C | 29% | 1004.9 hPa | 0 mm | - | - | - |
| 1777857603 | 20° C | 28% | 1004.9 hPa | 0 mm | - | - | - |
| 1777857003 | 20° C | 28% | 1004.9 hPa | 0 mm | - | - | - |
| 1777856403 | 20.56° C | 28% | 1005 hPa | 0 mm | - | - | - |
| 1777855804 | 20.56° C | 27% | 1005.1 hPa | 0 mm | - | - | - |
| 1777855204 | 21.11° C | 27% | 1005.2 hPa | 0 mm | - | - | - |
| 1777854604 | 21.11° C | 27% | 1005.4 hPa | 0 mm | - | - | - |
| 1777854004 | 21.11° C | 26% | 1005.2 hPa | 0 mm | - | - | - |
| 1777853403 | 21.67° C | 25% | 1005.3 hPa | 0 mm | - | - | - |
| 1777852804 | 21.67° C | 25% | 1005.4 hPa | 0 mm | - | - | - |
| 1777852203 | 21.67° C | 26% | 1005.4 hPa | 0 mm | - | - | - |
| 1777851604 | 21.67° C | 26% | 1005.5 hPa | 0 mm | - | - | - |
| 1777851003 | 21.67° C | 26% | 1005.7 hPa | 0 mm | - | - | - |
| 1777850403 | 22.22° C | 25% | 1005.7 hPa | 0 mm | - | - | - |
| 1777849804 | 22.22° C | 27% | 1005.9 hPa | 0 mm | - | - | - |
| 1777849205 | 22.78° C | 26% | 1006 hPa | 0 mm | - | - | - |
* Rain latest hour (hover to see other rain measurements)
** Current wind speed in m/s (hover to see current wind gust speed)